Home   Weather   Cornwall   Past weeks

Flag for Canada Past Weather in Cornwall, Ontario, Canada — Yesterday and Last 2 Weeks

Now
63 °F

Mild.


Feels Like: 63 °F
Forecast: N/A
Wind: 10 mph from Northeast

Location: St Anicet

Current Time: Sep 28, 2016 at 7:56:17 PM

Latest Report: Sep 28, 2016 at 7:00 PM


Visibility: N/A

Pressure: 30.27 "Hg

Humidity: 73%

Dew Point: 54 °F

Location of CornwallLocation

Past Weather in Cornwall — Graph

°F

Cornwall Temperature Yesterday

Maximum temperature yesterday: 72 °F (at 2:00 PM)
Minimum temperature yesterday: 50 °F (at 9:00 PM)
Average temperature yesterday: 61 °F

High & Low Weather Summary for the Past Weeks

 TemperatureHumidityPressure
High82 °F (Sep 20, 4:00 PM)100% (Sep 15, 7:00 AM)30.36 "Hg (Sep 15, 7:00 AM)
Low30 °F (Sep 26, 7:00 AM)32% (Sep 26, 1:00 PM)29.80 "Hg (Sep 27, 1:00 AM)
Average61 °F75%30.08 "Hg
* Reported Sep 13 6:00 PM — Sep 28 6:00 PM, Cornwall, Weather by CustomWeather, © 2016

Note: Actual official high and low records may vary slightly from our data, if they occured in-between our weather recording intervals... More about our weather records

Advertising

Cornwall Weather History for the Previous 24 Hours

Scroll right to see more
 ConditionsComfort  
Time TempWeatherWind HumidityBarometerVisibility
6:00 PM
Wed, Sep 28
66 °FMild.14 mph68%30.25 "HgN/A
5:00 PM69 °FMild.13 mph63%30.22 "HgN/A
4:00 PM70 °FMild.10 mph59%30.21 "HgN/A
3:00 PM71 °FMild.12 mph60%30.20 "HgN/A
2:00 PM69 °FMild.10 mph62%30.20 "HgN/A
1:00 PM66 °FMild.12 mph67%30.20 "HgN/A
12:00 PM62 °FCool.10 mph75%30.20 "HgN/A
11:00 AM57 °FCool.12 mph83%30.19 "HgN/A
10:00 AM57 °FCool.12 mph85%30.19 "HgN/A
9:00 AM54 °FCool.9 mph93%30.17 "HgN/A
8:00 AM54 °FCool.7 mph95%30.15 "HgN/A
7:00 AM53 °FCool.9 mph97%30.12 "HgN/A
6:00 AM53 °FCool.6 mph99%30.09 "HgN/A
5:00 AM52 °FCool.5 mph94%30.07 "HgN/A
4:00 AM52 °FCool.6 mph91%30.05 "HgN/A
3:00 AM52 °FCool.7 mph90%30.04 "HgN/A
2:00 AM53 °FCool.7 mph88%30.03 "HgN/A
1:00 AM51 °FCool.3 mph92%30.01 "HgN/A
12:00 AM55 °FCool.3 mph84%29.99 "HgN/A
11:00 PM
Tue, Sep 27
55 °FCool.3 mph82%29.98 "HgN/A
10:00 PM53 °FCool.3 mph88%29.97 "HgN/A
9:00 PM50 °FCool.1 mph94%29.94 "HgN/A
8:00 PM55 °FCool.2 mph86%29.91 "HgN/A
7:00 PM56 °FCool.1 mph81%29.89 "HgN/A
Weather by CustomWeather, © 2016

See weather overviewHow to use our weather pages